AI4Y Weather Reports


time (UTC)temp
C
wind
direction
speed
KPH
gust
KPH
rain 1hr
cm
rain 24hr
cm
rain mn
cm
humidity
%
barometer
mb
20260505052016 14 181 0.0 1.6 0.00 0.00 0.00 61 1013.6
20260505051016 15 228 0.0 0.0 0.00 0.00 0.00 60 1013.6
20260505041017 16 52 0.0 1.6 0.00 0.00 0.00 58 1013.4
20260505040017 16 55 0.0 3.2 0.00 0.00 0.00 58 1013.5
20260505035017 16 160 0.0 1.6 0.00 0.00 0.00 57 1013.5
20260505034017 16 116 0.0 4.8 0.00 0.00 0.00 57 1013.5
20260505033038 16 189 0.0 3.2 0.00 0.00 0.00 58 1013.6
20260505032018 16 123 0.0 3.2 0.00 0.00 0.00 58 1013.5
20260505031018 16 276 0.0 4.8 0.00 0.00 0.00 58 1013.5
20260505030038 16 104 1.6 6.4 0.00 0.00 0.00 58 1013.5
20260505025038 16 141 0.0 3.2 0.00 0.00 0.00 59 1013.6
20260505024036 16 157 0.0 3.2 0.00 0.00 0.00 59 1013.6
20260505023018 17 81 1.6 3.2 0.00 0.00 0.00 57 1013.5
20260505022015 17 85 0.0 1.6 0.00 0.00 0.00 57 1013.6
20260505021016 17 152 0.0 3.2 0.00 0.00 0.00 55 1013.6
20260505020016 17 133 0.0 3.2 0.00 0.00 0.00 55 1013.6
20260505015036 17 130 1.6 4.8 0.00 0.00 0.00 55 1013.6
20260505014016 18 311 0.0 6.4 0.00 0.00 0.00 55 1013.6
20260505013017 18 129 0.0 3.2 0.00 0.00 0.00 55 1013.5
20260505012016 18 258 0.0 1.6 0.00 0.00 0.00 55 1013.3
20260505011017 18 153 1.6 4.8 0.00 0.00 0.00 54 1013.2
20260505010017 18 157 1.6 4.8 0.00 0.00 0.00 54 1013.1
20260505005017 18 185 0.0 3.2 0.00 0.00 0.00 54 1012.9
20260505004018 19 150 0.0 3.2 0.00 0.00 0.00 54 1012.8
20260505003037 20 193 0.0 3.2 0.00 0.00 0.00 54 1012.7
20260505002018 20 207 0.0 1.6 0.00 0.00 0.00 53 1012.6
20260505001017 21 136 0.0 3.2 0.00 0.00 0.00 52 1012.6
20260505000018 22 113 0.0 4.8 0.00 0.00 0.00 52 1012.5
20260504235018 23 109 0.0 3.2 0.00 0.00 0.00 50 1012.4
20260504234018 24 112 0.0 1.6 0.00 0.00 0.00 47 1012.3
20260504233018 25 114 0.0 4.8 0.00 0.00 0.00 44 1012.3
20260504232018 25 202 1.6 6.4 0.00 0.00 0.00 44 1012.2
20260504231038 25 190 1.6 4.8 0.00 0.00 0.00 44 1012.2
20260504230019 25 195 1.6 4.8 0.00 0.00 0.00 43 1012.2
20260504225016 25 241 1.6 6.4 0.00 0.00 0.00 44 1012.2
20260504224016 24 227 1.6 4.8 0.00 0.00 0.00 45 1012.2
20260504223016 24 194 1.6 3.2 0.00 0.00 0.00 47 1012.3
20260504222017 25 207 3.2 4.8 0.00 0.00 0.00 46 1012.4
20260504221016 25 208 3.2 6.4 0.00 0.00 0.00 45 1012.4
20260504220016 26 164 1.6 4.8 0.00 0.00 0.00 43 1012.5
20260504215016 27 185 3.2 6.4 0.00 0.00 0.00 42 1012.4
20260504214037 26 243 3.2 9.7 0.00 0.00 0.00 41 1012.4
20260504213017 25 186 3.2 8.0 0.00 0.00 0.00 43 1012.3
20260504212017 24 214 1.6 4.8 0.00 0.00 0.00 47 1012.4
20260504211017 25 217 3.2 6.4 0.00 0.00 0.00 45 1012.4
20260504210017 25 273 3.2 6.4 0.00 0.00 0.00 45 1012.3
20260504205020 25 261 3.2 4.8 0.00 0.00 0.00 43 1012.4
20260504204018 25 263 1.6 4.8 0.00 0.00 0.00 42 1012.5
20260504203018 25 217 1.6 4.8 0.00 0.00 0.00 42 1012.7
20260504202018 26 249 1.6 3.2 0.00 0.00 0.00 40 1012.7
20260504201018 25 230 3.2 6.4 0.00 0.00 0.00 42 1012.7
20260504200018 25 255 3.2 8.0 0.00 0.00 0.00 41 1012.8
20260504195015 24 266 1.6 4.8 0.00 0.00 0.00 43 1012.9
20260504194016 25 283 3.2 6.4 0.00 0.00 0.00 42 1013.2
20260504193015 24 295 3.2 9.7 0.00 0.00 0.00 42 1013.3
20260504192015 24 266 1.6 6.4 0.00 0.00 0.00 42 1013.4
20260504191016 23 249 3.2 8.0 0.00 0.00 0.00 43 1013.4
20260504190016 22 301 6.4 9.7 0.00 0.00 0.00 44 1013.5
20260504185016 22 294 4.8 9.7 0.00 0.00 0.00 44 1014.1
20260504184016 22 275 6.4 12.9 0.00 0.00 0.00 43 1014.0
20260504183016 22 279 6.4 12.9 0.00 0.00 0.00 43 1014.2
20260504182017 22 277 6.4 14.5 0.00 0.00 0.00 42 1014.3
20260504181017 23 254 6.4 12.9 0.00 0.00 0.00 42 1014.5
20260504180037 24 244 4.8 14.5 0.00 0.00 0.00 40 1014.3
20260504175017 25 268 4.8 11.3 0.00 0.00 0.00 40 1014.3
20260504174017 25 258 4.8 32.2 0.00 0.00 0.00 39 1014.2
20260504173017 24 291 6.4 12.9 0.00 0.00 0.00 40 1014.2
20260504172018 24 295 6.4 12.9 0.00 0.00 0.00 40 1014.5
20260504171018 24 205 4.8 11.3 0.00 0.00 0.00 42 1014.4
20260504151016 21 274 4.8 9.7 0.00 0.00 0.00 41 1016.1
20260504141017 20 288 4.8 12.9 0.00 0.00 0.00 42 1016.2
20260504081016 6 311 0.0 3.2 0.00 0.00 0.00 91 1016.5